Vorticity
nan nan nan nan nan nan nan nan nan nan nan nan nan nan nan nan nan nan nan nan nan nan nan nan nan nan nan nan nan nan nan nan nan nan nan nan nan nan nan nan nan nan nan nan
nan 7 6 5 7 7 3 10 10 7 10 4 4 15 17 8 6 7 1 10 6 7 11 9 5 6 11 6 7 7 7 7 3 5 7 8 10 10 9 12 8 6 8 nan
nan 8 4 7 7 8 8 7 4 10 13 7 11 11 5 1 14 16 8 8 7 8 7 9 3 10 7 8 6 7 7 6 5 5 5 7 6 9 11 9 5 8 9 nan
nan 4 11 11 4 11 10 3 2 4 3 10 7 9 14 12 6 6 16 4 8 9 9 8 8 7 5 8 7 8 7 7 5 4 7 8 6 6 8 6 9 11 8 nan
nan 8 8 4 11 7 6 8 12 4 2 4 3 4 15 17 3 11 15 9 8 8 7 8 10 4 9 8 7 8 8 6 6 6 6 7 6 4 9 12 13 7 9 nan
nan 11 10 13 8 5 8 8 8 10 11 10 10 8 6 9 21 14 10 12 11 9 8 8 1 3 23 8 8 9 8 6 7 8 5 6 7 2 5 10 13 11 7 nan
nan 8 6 11 11 12 8 9 12 10 12 9 9 23 16 6 3 21 22 10 11 9 7 8 9 6 8 12 12 9 9 7 9 8 6 6 7 8 6 6 5 5 10 nan
nan 12 14 6 10 7 12 7 3 2 6 6 12 17 16 26 16 4 3 7 10 16 13 8 0 15 9 10 8 9 8 8 9 6 8 7 5 7 9 7 8 8 8 nan
nan 8 16 20 8 9 7 6 6 10 2 -1 8 -8 15 21 6 11 12 19 7 14 11 7 9 11 8 12 8 9 10 8 8 6 8 8 8 6 6 9 7 6 9 nan
nan 7 15 15 11 8 6 7 11 8 2 5 16 10 7 4 8 -1 3 8 21 29 11 14 12 10 7 8 9 10 11 8 8 7 7 8 9 7 4 8 10 8 7 nan
nan 6 9 7 10 11 7 6 2 11 15 10 3 18 20 14 8 13 18 3 15 4 13 11 11 12 9 8 8 11 9 9 8 9 9 9 9 8 8 6 8 8 8 nan
nan 8 12 6 10 13 7 10 7 6 4 7 3 20 25 17 16 9 4 7 3 16 20 10 13 11 9 9 8 9 8 9 8 7 9 10 9 11 9 7 7 9 8 nan
nan 15 3 13 17 16 9 8 7 3 8 7 9 4 9 16 10 17 12 17 -1 19 8 9 9 10 13 9 11 11 9 8 9 9 10 9 9 8 9 10 9 8 9 nan
nan 9 9 13 3 15 14 11 3 6 9 8 9 7 0 8 14 17 6 -1 12 15 8 10 10 8 10 12 11 11 12 11 12 10 9 9 9 9 9 11 11 9 8 nan
nan 7 6 4 10 3 9 10 9 13 1 6 15 8 1 12 20 9 15 8 13 -1 9 9 9 8 8 9 10 9 9 13 11 12 10 12 10 10 8 6 9 13 11 nan
nan 7 9 5 8 10 17 7 14 15 5 10 8 1 5 8 23 17 9 9 9 6 11 9 9 9 9 8 9 10 11 11 11 11 12 13 11 10 11 11 8 9 11 nan
nan 17 15 12 10 8 11 7 17 10 21 9 7 14 9 3 7 15 25 8 11 0 9 9 8 10 9 9 8 10 8 9 11 9 11 11 12 14 14 12 10 10 11 nan
nan 7 11 15 18 12 15 19 1 3 24 12 15 12 11 5 10 23 14 6 8 9 18 9 8 10 9 12 11 8 9 8 8 10 9 10 9 10 11 12 12 12 15 nan
nan 8 8 13 10 12 12 11 -1 30 17 7 11 2 10 17 3 14 21 24 4 17 8 6 10 11 7 8 10 11 10 10 10 7 8 10 10 10 10 10 11 12 12 nan
nan 4 6 10 13 11 7 13 7 22 28 11 11 16 14 11 11 12 9 7 11 24 10 13 11 8 10 7 10 9 10 8 9 9 8 9 10 11 11 11 11 11 11 nan
nan 13 9 7 7 3 5 14 28 23 27 23 14 12 12 9 15 15 13 11 11 11 10 9 9 9 10 10 11 9 10 9 8 10 10 9 10 11 12 12 12 12 12 nan
nan 18 12 11 15 11 -4 19 5 -8 10 23 23 13 14 12 10 9 8 8 10 6 8 8 10 8 7 13 9 12 10 9 9 9 8 8 10 12 11 12 13 14 16 nan
nan 9 20 17 14 21 7 7 -7 10 16 7 10 16 12 6 6 6 7 7 8 11 9 7 12 10 9 7 8 12 7 9 9 8 7 8 9 11 12 14 15 14 14 nan
nan 17 12 21 24 15 15 6 2 13 15 11 11 9 8 9 11 8 9 11 9 8 8 14 10 8 8 5 12 11 10 9 8 8 7 7 8 9 11 14 16 12 13 nan
nan 7 13 8 12 8 11 5 8 11 20 8 9 11 11 12 10 10 10 10 14 12 10 10 10 9 8 9 13 11 10 7 6 7 8 7 7 8 11 10 12 16 16 nan
nan nan nan nan nan nan nan nan nan nan nan nan nan nan nan nan nan nan nan nan nan nan nan nan nan nan nan nan nan nan nan nan nan nan nan nan nan nan nan nan nan nan nan nan
CAPE
0 0 0 0 0 0 18 211 310 716 67 546 219 535 868 639 502 515 172 36 58 69 154 68 183 369 273 615 918 1528 1789 1721 1905 1425 1306 1826 822 1588 879 1241 1820 2826 2371 2570
0 0 0 0 0 0 0 25 203 272 24 92 18 214 937 784 579 357 277 62 54 95 84 215 284 160 515 867 1090 1822 2412 2375 2203 1360 1868 1799 1883 1741 1914 1611 2813 2037 2150 2979
0 0 0 0 0 0 0 0 108 192 51 136 0 0 468 232 303 441 272 239 125 58 78 184 497 473 669 1192 1331 1834 2588 2572 2042 2481 2162 2704 3156 1528 2387 2807 2384 2074 2945 2660
0 0 0 0 0 0 0 0 5 66 101 44 28 132 680 223 216 399 565 468 140 69 271 177 171 721 654 1265 1548 1845 2548 2420 2232 2917 2164 2883 2429 1722 2318 843 662 1771 2766 2811
0 0 0 0 0 0 0 0 6 14 10 0 2 28 244 25 287 281 171 520 374 79 165 63 204 361 720 1359 1483 2019 2184 2841 2377 2726 2994 2572 2426 2217 2649 1603 2592 2418 2676 3277
0 0 0 0 0 0 0 0 0 4 20 11 0 2 553 103 617 470 238 162 583 355 299 276 158 131 628 1479 1600 2177 2427 2904 3134 2512 2754 2974 2274 2351 2846 2677 2173 2409 2391 2452
0 0 0 0 0 0 0 0 0 0 5 0 23 59 309 195 199 97 443 517 666 511 440 439 146 98 640 970 1553 2177 2628 2764 2926 2808 2615 2914 3169 3018 3067 3116 1966 988 1309 2463
0 0 0 0 0 0 0 0 0 0 26 28 154 279 172 188 250 177 265 491 350 699 564 438 625 639 562 978 1453 1979 2786 2957 2863 3130 3032 2784 3273 2770 2500 2743 2506 1851 837 822
0 0 0 0 0 0 0 0 0 0 20 11 18 238 3 69 96 52 40 630 225 447 899 1044 844 1122 1613 1496 1459 1856 2787 3076 2992 2884 3107 3362 3060 2922 2406 2479 2907 2259 3250 1577
0 0 0 0 0 0 0 0 0 0 0 19 24 207 42 22 52 18 281 65 439 840 953 1178 1198 1206 1413 1817 1792 1793 2789 3005 3086 2653 3137 3306 3340 3140 2934 3555 3176 2524 2352 3160
0 0 0 1 0 0 0 0 0 0 0 0 103 102 334 207 94 11 379 145 179 729 1097 1593 1591 1632 1577 1768 2107 2107 2726 2937 3214 2743 2881 3001 3118 3267 3232 3093 3495 3343 3511 3886
1 0 0 0 0 0 0 0 0 1 0 0 113 40 68 43 54 53 967 157 0 235 1517 1817 2010 2063 1998 1964 1965 2299 2656 2971 3045 2903 2932 2991 3485 3245 3247 3234 3295 3692 3244 3364
4 5 2 0 0 2 0 0 0 0 3 203 147 124 43 23 16 431 614 270 19 1608 1833 1881 2008 2728 2348 2267 2284 1897 2615 2562 2616 3011 3270 3262 3291 3155 3110 3100 3134 3394 3467 3113
0 0 2 1 9 25 1 0 0 4 50 40 30 125 117 31 69 637 373 26 212 2133 2417 2346 2340 2655 3015 3452 3789 3527 2831 2468 3324 3124 3538 2829 2997 2982 2937 3077 3215 3196 3446 3153
0 0 0 0 0 2 1 9 12 0 2 101 81 127 80 19 204 472 913 927 1436 1955 2037 2728 3096 3453 3766 3891 3654 3546 3380 3484 3708 3618 3315 2972 2575 2779 2604 2542 3118 3132 2967 2760
0 18 0 0 0 2 6 0 4 7 0 0 83 37 37 22 135 317 1221 1190 1751 1840 2054 2821 3491 3495 3493 3587 3824 3601 3626 3775 3610 3621 3059 3102 3163 2790 2438 2212 1909 2131 2807 2941
58 39 127 22 0 7 10 14 49 53 0 6 101 122 31 54 101 165 1048 540 932 1619 1862 2505 2960 3256 3439 3434 3471 3539 3560 3674 3485 2816 2846 2666 2535 2711 3037 2319 2002 1955 1696 1230
145 275 216 292 209 128 7 51 23 110 60 51 28 240 0 90 2 152 765 57 0 238 2250 2589 2123 2720 2575 2512 2554 2813 2867 3028 2833 2190 1909 1452 1821 1839 1908 2001 2154 2462 2240 1329
24 119 138 223 301 112 105 48 67 226 47 115 28 22 30 217 325 1077 1115 13 0 515 2221 2522 2448 2828 2329 2426 1640 2077 2330 2227 1919 1904 1168 712 648 544 494 464 601 747 919 1065
11 106 229 166 429 265 221 267 91 2 291 185 0 0 12 326 216 442 928 926 1050 1112 2097 2203 1860 1915 1553 1496 1075 1124 1734 1657 799 720 519 202 6 6 5 9 1 0 0 1
229 209 149 252 191 343 371 51 19 203 398 162 4 14 307 996 999 1167 733 874 727 1366 1383 1169 1589 1598 1655 862 778 969 1208 576 389 146 3 1 1 1 4 8 11 7 11 10
284 351 261 562 353 211 111 9 36 190 257 548 357 506 1783 1630 1304 1037 819 842 847 970 927 605 1010 1130 450 611 406 663 320 342 201 8 4 3 3 1 2 6 4 4 5 8
412 494 463 390 376 150 65 5 0 0 688 383 540 395 1806 1476 959 745 776 632 563 640 841 329 674 512 150 57 353 639 410 510 81 8 2 3 5 5 4 4 4 5 5 5
356 266 160 204 596 494 261 239 240 50 593 606 329 83 102 286 566 410 452 534 494 454 546 297 317 135 31 18 67 562 331 289 158 50 5 5 3 5 4 3 5 4 2 1
140 138 56 164 767 448 390 488 611 362 481 537 779 222 179 187 406 301 388 778 714 341 165 78 53 32 4 49 280 493 563 388 146 55 2 2 2 5 5 5 1 3 3 1
174 241 54 281 171 613 908 360 434 429 739 982 873 388 351 239 484 393 956 716 495 273 200 146 78 20 20 189 493 447 580 434 154 26 2 0 3 2 5 6 4 0 0 0